Regional Weather Roundup
Issued by NWS Cleveland, OH

Home | Current Version | Previous Version | Graphics & Text | Print | Product List | Glossary On
Versions: 1 2 3 4 5 6 7 8 9 10 11 12 13 14 15 16 17 18 19 20 21 22 23 24 25 26 27 28 29 30 31 32 33 34 35 36 37 38 39 40 41 42 43 44 45 46 47 48 49 50
000
ASUS41 KCLE 231502
RWRCLE
OHIO REGIONAL WEATHER ROUNDUP
NATIONAL WEATHER SERVICE CLEVELAND, OH
1100 AM EDT SAT AUG 23 2014

NOTE: "FAIR" INDICATES FEW OR NO CLOUDS BELOW 12,000 FEET WITH NO
SIGNIFICANT WEATHER AND/OR OBSTRUCTIONS TO VISIBILITY.

OHZ001>008-015>018-024>027-034-035-043-044-231600-
   NORTHWEST OHIO

CITY           SKY/WX    TMP DP  RH WIND       PRES   REMARKS
DEFIANCE       CLOUDY    76  69  79 NE3       30.04S
FINDLAY        CLOUDY    75  70  84 E8        30.03R
TOLEDO EXPRESS CLOUDY    75  67  76 VRB3      30.04R
TOLEDO EXEC    CLOUDY    75  68  78 E5        30.04S
LIMA           PTSUNNY   78  70  76 E7        30.04R
$$

OHZ009>014-019>023-028>033-038-089-231600-
   NORTHEAST OHIO

CITY           SKY/WX    TMP DP  RH WIND       PRES   REMARKS
CLE-HOPKINS    MOSUNNY   77  67  71 NE6       30.05R
CLE-LAKEFRONT  MOSUNNY   76  67  73 N8        30.03R
CUY CO. ARPT   MOSUNNY   77  68  73 NE9       30.04S
LORAIN-ELYRIA  PTSUNNY   80  68  66 NE5       30.04R
ASHTABULA      CLOUDY    70  65  84 N6        30.06R
AKRON-CANTON   MOSUNNY   76  65  68 NE6       30.04R
WOOSTER        SUNNY     78  66  66 E5        30.05S
MANSFIELD      MOSUNNY   75  68  78 NE3       30.05S
YOUNGSTOWN     PTSUNNY   72  65  78 NE8       30.04S
$$

OHZ042-051>053-060>062-070>072-077>081-231600-
  SOUTHWEST OHIO

CITY           SKY/WX    TMP DP  RH WIND       PRES   REMARKS
CINC-COVINGTON PTSUNNY   83  73  72 NE3       30.03R
CINC-LUNKEN    PTSUNNY   80  74  81 CALM      30.02R
HAMILTON       MOSUNNY   80  74  81 CALM      30.02F
DAYTON         PTSUNNY   79  73  82 SE5       30.03F
WRIGHT-PAT AFB NOT AVBL
DAYTON GENERAL PTSUNNY   80  74  81 VRB3      30.02S
WILMINGTON     PTSUNNY   79  71  76 NE3       30.03R
$$

OHZ036-037-039>041-045>050-054>059-063>069-073>076-082>088-231600-
  CENTRAL AND SOUTHEAST OHIO

CITY           SKY/WX    TMP DP  RH WIND       PRES   REMARKS
COLUMBUS       PTSUNNY   82  70  66 E5        30.02R
OSU AIRPORT    MOSUNNY   80  70  71 CALM      30.03R
BOLTON FIELD   NOT AVBL
RICKENBACK AFB CLOUDY    77  68  72 E3        30.02R
NEWARK         CLOUDY    77  69  76 E5        30.03R
MARION         MOSUNNY   76  69  79 NE7       30.04S
LANCASTER      CLOUDY    74  70  87 E5        30.04R FOG
ZANESVILLE     PTSUNNY   75  68  78 N3        30.03R
NEW PHILLY     SUNNY     77  68  73 NE7       30.03S
$$



USA.gov is the U.S. government's official web portal to all federal, state and local government web resources and services.